Location: Aulnoy
(48.8410°N, 3.0967°E)
Time: 10:33:52
(UTC+00:00)

Cosmos 1943 Rocket - Pass Details

Date: 09 February 2023
Orbit: 811 x 844 km, 71.0° (Epoch: 23 March)

Event Time Altitude Azimuth Distance (km) Brightness Sun altitude
Rises 18:39:33 0° 335° (NNW) 3,415 5.7 -17.1°
Reaches altitude 10° 18:42:15 10° 344° (NNW) 2,475 4.8 -17.5°
Maximum altitude 18:47:24 34° 49° (NE) 1,357 2.9 -18.4°
Enters shadow 18:48:31 32° 73° (ENE) 1,427 2.8 -18.6°
